| time (UTC) | temp C | wind direction | speed KPH | gust KPH | rain 1hr cm | rain 24hr cm | rain mn cm | humidity % | barometer mb |
| 20260506153036 | 11 | 269 | 0.0 | 8.0 | 0.05 | 0.86 | 0.48 | 90 | 1011.4 |
| 20260506151532 | 11 | 84 | 0.0 | 6.4 | 0.05 | 0.84 | 0.46 | 90 | 1011.3 |
| 20260506150031 | 11 | 243 | 1.6 | 4.8 | 0.05 | 0.84 | 0.46 | 90 | 1011.2 |
| 20260506144530 | 11 | 237 | 3.2 | 11.3 | 0.05 | 0.94 | 0.46 | 89 | 1011.2 |
| 20260506143040 | 11 | 261 | 3.2 | 11.3 | 0.08 | 0.91 | 0.43 | 89 | 1011.3 |
| 20260506141534 | 11 | 248 | 1.6 | 9.7 | 0.08 | 0.89 | 0.43 | 89 | 1011.3 |
| 20260506140029 | 11 | 238 | 4.8 | 12.9 | 0.10 | 0.89 | 0.43 | 88 | 1011.3 |
| 20260506134528 | 11 | 234 | 6.4 | 11.3 | 0.10 | 1.07 | 0.41 | 89 | 1011.1 |
| 20260506133028 | 11 | 251 | 4.8 | 12.9 | 0.08 | 1.02 | 0.36 | 91 | 1011.0 |
| 20260506131529 | 11 | 226 | 4.8 | 16.1 | 0.05 | 0.99 | 0.33 | 90 | 1011.1 |
| 20260506130027 | 11 | 287 | 1.6 | 12.9 | 0.05 | 0.99 | 0.33 | 91 | 1011.0 |
| 20260506124525 | 11 | 233 | 3.2 | 11.3 | 0.05 | 0.97 | 0.30 | 91 | 1010.8 |
| 20260506123026 | 12 | 240 | 1.6 | 12.9 | 0.15 | 0.94 | 0.28 | 91 | 1010.6 |
| 20260506121523 | 12 | 240 | 3.2 | 12.9 | 0.20 | 0.94 | 0.28 | 92 | 1010.4 |
| 20260506120026 | 12 | 244 | 4.8 | 20.9 | 0.23 | 0.91 | 0.25 | 91 | 1010.1 |
| 20260506114529 | 12 | 255 | 1.6 | 6.4 | 0.20 | 0.89 | 0.23 | 93 | 1010.1 |
| 20260506113023 | 12 | 247 | 1.6 | 11.3 | 0.15 | 0.79 | 0.15 | 92 | 1010.1 |
| 20260506111520 | 13 | 256 | 3.2 | 8.0 | 0.08 | 0.71 | 0.08 | 90 | 1010.0 |
| 20260506110019 | 13 | 269 | 4.8 | 8.0 | 0.05 | 0.71 | 0.05 | 89 | 1009.9 |
| 20260506104518 | 13 | 230 | 1.6 | 6.4 | 0.03 | 0.69 | 0.03 | 88 | 1009.9 |
| 20260506103018 | 13 | 242 | 1.6 | 8.0 | 0.00 | 0.66 | 0.00 | 85 | 1009.7 |
| 20260506101518 | 13 | 244 | 1.6 | 6.4 | 0.00 | 0.66 | 0.00 | 83 | 1009.6 |
| 20260506100017 | 13 | 250 | 1.6 | 6.4 | 0.00 | 0.66 | 0.00 | 82 | 1009.4 |
| 20260506094515 | 13 | 231 | 0.0 | 9.7 | 0.00 | 0.66 | 0.00 | 84 | 1009.4 |
| 20260506093016 | 13 | 246 | 3.2 | 8.0 | 0.00 | 0.66 | 0.00 | 83 | 1009.4 |
| 20260506091515 | 13 | 243 | 4.8 | 11.3 | 0.00 | 0.66 | 0.00 | 82 | 1009.3 |
| 20260506090016 | 13 | 237 | 3.2 | 9.7 | 0.00 | 0.66 | 0.00 | 82 | 1009.3 |
| 20260506084513 | 13 | 236 | 3.2 | 12.9 | 0.00 | 0.69 | 0.00 | 81 | 1009.2 |
| 20260506083013 | 14 | 249 | 3.2 | 11.3 | 0.00 | 0.69 | 0.00 | 80 | 1009.0 |
| 20260506081512 | 14 | 237 | 3.2 | 12.9 | 0.00 | 0.69 | 0.00 | 80 | 1008.9 |
| 20260506073006 | 13 | 247 | 1.6 | 8.0 | 0.00 | 0.69 | 0.00 | 83 | 1009.1 |
| 20260506071505 | 12 | 260 | 1.6 | 9.7 | 0.00 | 0.69 | 0.00 | 85 | 1009.0 |
| 20260506061559 | 12 | 252 | 1.6 | 3.2 | 0.00 | 0.69 | 0.00 | 84 | 1009.2 |
| 20260506044552 | 10 | 257 | 0.0 | 0.0 | 0.00 | 0.69 | 0.00 | 91 | 1009.3 |
| 20260506043047 | 11 | 257 | 0.0 | 1.6 | 0.00 | 0.69 | 0.00 | 90 | 1009.4 |
| 20260506041549 | 11 | 257 | 0.0 | 1.6 | 0.00 | 0.69 | 0.00 | 87 | 1009.4 |
| 20260506040058 | 11 | 255 | 0.0 | 1.6 | 0.00 | 0.69 | 0.00 | 88 | 1009.5 |
| 20260506034553 | 11 | 249 | 0.0 | 3.2 | 0.00 | 0.69 | 0.00 | 87 | 1009.6 |
| 20260506033044 | 11 | 246 | 0.0 | 4.8 | 0.00 | 0.69 | 0.00 | 87 | 1009.7 |
| 20260506031555 | 11 | 256 | 0.0 | 4.8 | 0.00 | 0.69 | 0.00 | 86 | 1009.9 |
| 20260506030041 | 11 | 250 | 0.0 | 3.2 | 0.00 | 0.69 | 0.00 | 87 | 1009.8 |
| 20260506024541 | 11 | 240 | 0.0 | 3.2 | 0.00 | 0.69 | 0.00 | 89 | 1009.9 |
| 20260506023040 | 11 | 252 | 0.0 | 3.2 | 0.00 | 0.69 | 0.00 | 92 | 1009.9 |
| 20260506021539 | 11 | 257 | 0.0 | 1.6 | 0.00 | 0.69 | 0.00 | 93 | 1009.9 |
| 20260506020039 | 11 | 251 | 0.0 | 1.6 | 0.00 | 0.69 | 0.00 | 93 | 1010.1 |
| 20260506014536 | 11 | 250 | 0.0 | 0.0 | 0.00 | 0.69 | 0.00 | 93 | 1010.2 |
| 20260506013034 | 11 | 252 | 0.0 | 1.6 | 0.00 | 0.69 | 0.00 | 92 | 1010.4 |
| 20260506011633 | 11 | 252 | 0.0 | 1.6 | 0.00 | 0.69 | 0.00 | 93 | 1010.6 |
| 20260506010034 | 11 | 246 | 0.0 | 1.6 | 0.00 | 0.69 | 0.00 | 93 | 1010.7 |
| 20260506004531 | 11 | 248 | 0.0 | 1.6 | 0.00 | 0.69 | 0.00 | 93 | 1010.5 |
| 20260506003032 | 11 | 258 | 0.0 | 1.6 | 0.00 | 0.69 | 0.00 | 93 | 1010.6 |
| 20260506001529 | 11 | 262 | 0.0 | 1.6 | 0.00 | 0.69 | 0.00 | 94 | 1010.8 |
| 20260506000027 | 11 | 259 | 0.0 | 0.0 | 0.00 | 0.69 | 0.00 | 93 | 1010.9 |
| 20260505234525 | 11 | 259 | 0.0 | 0.0 | 0.00 | 0.69 | 0.00 | 93 | 1011.1 |
| 20260505233024 | 11 | 259 | 0.0 | 0.0 | 0.00 | 0.69 | 0.00 | 93 | 1011.1 |
| 20260505231529 | 11 | 259 | 0.0 | 0.0 | 0.00 | 0.69 | 0.00 | 93 | 1011.1 |
| 20260505230027 | 11 | 257 | 0.0 | 0.0 | 0.00 | 0.69 | 0.00 | 92 | 1011.3 |
| 20260505224520 | 11 | 242 | 0.0 | 0.0 | 0.00 | 0.69 | 0.00 | 92 | 1011.3 |
| 20260505223018 | 11 | 243 | 0.0 | 0.0 | 0.00 | 0.69 | 0.00 | 91 | 1011.3 |
| 20260505221516 | 12 | 242 | 0.0 | 1.6 | 0.00 | 0.69 | 0.00 | 89 | 1011.2 |
| 20260505220013 | 12 | 252 | 0.0 | 3.2 | 0.00 | 0.69 | 0.00 | 87 | 1011.2 |
| 20260505214513 | 12 | 123 | 0.0 | 6.4 | 0.00 | 0.69 | 0.69 | 86 | 1011.4 |
| 20260505213012 | 12 | 256 | 0.0 | 4.8 | 0.00 | 0.69 | 0.69 | 86 | 1011.5 |
| 20260505211512 | 12 | 78 | 0.0 | 6.4 | 0.00 | 0.69 | 0.69 | 87 | 1011.5 |
| 20260505210010 | 12 | 94 | 1.6 | 8.0 | 0.00 | 0.69 | 0.69 | 88 | 1011.5 |
| 20260505204510 | 12 | 245 | 0.0 | 4.8 | 0.00 | 0.69 | 0.69 | 91 | 1011.5 |
| 20260505203009 | 12 | 257 | 0.0 | 0.0 | 0.00 | 0.69 | 0.69 | 89 | 1011.6 |
| 20260505201510 | 12 | 251 | 0.0 | 3.2 | 0.00 | 0.69 | 0.69 | 88 | 1011.5 |
| 20260505200015 | 13 | 246 | 0.0 | 3.2 | 0.00 | 0.69 | 0.69 | 88 | 1011.3 |
| 20260505194509 | 13 | 250 | 0.0 | 4.8 | 0.00 | 0.69 | 0.69 | 88 | 1011.2 |
| 20260505193008 | 13 | 258 | 0.0 | 3.2 | 0.00 | 0.69 | 0.69 | 88 | 1011.1 |
| 20260505191507 | 12 | 262 | 0.0 | 4.8 | 0.00 | 0.69 | 0.69 | 90 | 1010.9 |
| 20260505190006 | 12 | 72 | 0.0 | 3.2 | 0.00 | 0.69 | 0.69 | 90 | 1010.9 |
| 20260505184505 | 13 | 82 | 0.0 | 3.2 | 0.03 | 0.69 | 0.69 | 89 | 1010.8 |
| 20260505183005 | 13 | 248 | 1.6 | 3.2 | 0.05 | 0.69 | 0.69 | 88 | 1010.8 |
| 20260505181504 | 13 | 91 | 0.0 | 6.4 | 0.33 | 0.69 | 0.69 | 88 | 1010.5 |
| 20260505180008 | 13 | 139 | 0.0 | 6.4 | 0.38 | 0.69 | 0.69 | 88 | 1010.6 |
| 20260505174503 | 14 | 245 | 4.8 | 16.1 | 0.36 | 0.69 | 0.66 | 88 | 1010.6 |
| 20260505173003 | 15 | 246 | 1.6 | 8.0 | 0.33 | 0.64 | 0.61 | 90 | 1010.6 |
| 20260505171505 | 16 | 248 | 1.6 | 4.8 | 0.05 | 0.36 | 0.33 | 85 | 1010.5 |
| 20260505170005 | 16 | 252 | 1.6 | 4.8 | 0.00 | 0.33 | 0.30 | 82 | 1010.3 |
| 20260505164501 | 16 | 247 | 1.6 | 4.8 | 0.00 | 0.38 | 0.30 | 81 | 1010.2 |
| 20260505163001 | 16 | 252 | 0.0 | 6.4 | 0.00 | 0.38 | 0.30 | 80 | 1010.4 |
| 20260505161501 | 16 | 237 | 1.6 | 6.4 | 0.00 | 0.38 | 0.30 | 82 | 1010.4 |